Dallas Paulding County Region, GA

5:05 PM EST on November 13, 2019 (GMT -0500)
Dallas Paulding County Region

Weather History for KPUJ - October, 2019

Change the Weather History Date:

Friday, October 18, 2019

  Actual Average (WUND) Record (WUND)
Temperature  
Mean Temperature 52 °F -  
Max Temperature 62 °F - - (-1)
Min Temperature 42 °F - - (-1)
Degree Days  
Heating Degree Days 13    
Growing Degree Days 2 (Base 50)    
Moisture  
Dew Point 41 °F    
Average Humidity 64    
Maximum Humidity 81    
Minimum Humidity 45    
Precipitation  
Precipitation 0.00 in - - ()
Sea Level Pressure  
Sea Level Pressure 29.99 in    
Wind  
Wind Speed 6 mph ()    
Max Wind Speed 10 mph    
Max Gust Speed -    
Visibility 10.0 miles    
Events      
Averages and records for this station are not official NWS values.
T = Trace of Precipitation, MM = Missing Value Source: Averaged Metar Reports

Daily Weather History Graph

Daily Weather History Graph

Search for Another Location

Airport or City:

Astronomy

Oct. 18, 2019 Rise Set
Actual Time 7:46 AM EDT 7:02 PM EDT
Civil Twilight 7:21 AM EDT 7:27 PM EDT
Nautical Twilight 6:52 AM EDT 7:56 PM EDT
Astronomical Twilight 6:23 AM EDT 8:25 PM EDT
Moon 10:28 PM EDT (10/18) 12:09 PM EDT (10/18)
Length of Visible Light 12h 05m
Length of Day
11h 15m
Waning Gibbous, 79% of the Moon is Illuminated
Oct 18
Waning Gibbous
Oct 21
Last Quarter
Oct 27
New
Nov 4
First Quarter
Nov 12
Full

Hourly Weather History & Observations

Time (EDT) Temp. Windchill Dew Point Humidity Pressure Visibility Wind Dir Wind Speed Gust Speed Precip Events Conditions
12:15 AM 50.0 °F - 35.6 °F 58% 29.98 in 10.0 mi North 9.2 mph - N/A   Clear
12:35 AM 50.0 °F - 35.6 °F 58% 29.98 in 10.0 mi NNW 8.1 mph - N/A   Clear
12:55 AM 48.2 °F - 37.4 °F 66% 29.98 in 10.0 mi NW 5.8 mph - N/A   Clear
1:15 AM 50.0 °F - 35.6 °F 58% 29.99 in 10.0 mi NNW 8.1 mph - N/A   Clear
1:35 AM 48.2 °F - 37.4 °F 66% 29.98 in 10.0 mi NNW 8.1 mph - N/A   Clear
1:55 AM 48.2 °F - 37.4 °F 66% 29.99 in 10.0 mi NNW 9.2 mph - N/A   Clear
2:15 AM 46.4 °F 41.9 °F 37.4 °F 71% 29.98 in 10.0 mi NNW 9.2 mph - N/A   Clear
2:35 AM 46.4 °F 42.4 °F 37.4 °F 71% 29.99 in 10.0 mi NNW 8.1 mph - N/A   Clear
2:55 AM 46.4 °F 41.9 °F 37.4 °F 71% 29.99 in 10.0 mi NNW 9.2 mph - N/A   Clear
3:15 AM 46.4 °F 41.9 °F 37.4 °F 71% 29.98 in 10.0 mi NNW 9.2 mph - N/A   Clear
3:35 AM 46.4 °F 42.4 °F 37.4 °F 71% 29.98 in 10.0 mi NW 8.1 mph - N/A   Clear
3:55 AM 46.4 °F 43.5 °F 37.4 °F 71% 29.98 in 10.0 mi NNW 5.8 mph - N/A   Clear
4:15 AM 44.6 °F 39.7 °F 37.4 °F 76% 29.97 in 10.0 mi NNW 9.2 mph - N/A   Clear
4:35 AM 44.6 °F 40.2 °F 37.4 °F 76% 29.98 in 10.0 mi NW 8.1 mph - N/A   Clear
4:55 AM 44.6 °F 41.4 °F 37.4 °F 76% 29.98 in 10.0 mi NNW 5.8 mph - N/A   Clear
5:15 AM 44.6 °F 41.4 °F 35.6 °F 71% 29.98 in 10.0 mi North 5.8 mph - N/A   Clear
5:35 AM 44.6 °F 40.2 °F 37.4 °F 76% 29.98 in 10.0 mi North 8.1 mph - N/A   Clear
5:55 AM 44.6 °F 40.7 °F 37.4 °F 76% 29.98 in 10.0 mi North 6.9 mph - N/A   Clear
6:15 AM 44.6 °F 40.2 °F 35.6 °F 71% 29.98 in 10.0 mi North 8.1 mph - N/A   Clear
6:35 AM 44.6 °F - 35.6 °F 71% 29.98 in 10.0 mi Calm Calm - N/A   Clear
6:55 AM 42.8 °F 41.1 °F 35.6 °F 76% 29.98 in 10.0 mi North 3.5 mph - N/A   Clear
7:15 AM 42.8 °F 39.3 °F 35.6 °F 76% 29.98 in 10.0 mi NNE 5.8 mph - N/A   Clear
7:35 AM 42.8 °F 41.1 °F 35.6 °F 76% 29.98 in 10.0 mi NNE 3.5 mph - N/A   Clear
7:55 AM 42.8 °F 41.1 °F 35.6 °F 76% 29.99 in 10.0 mi NNE 3.5 mph - N/A   Clear
8:15 AM 42.8 °F 41.1 °F 37.4 °F 81% 30.01 in 10.0 mi NNE 3.5 mph - N/A   Clear
8:35 AM 44.6 °F 42.2 °F 37.4 °F 76% 30.01 in 10.0 mi NE 4.6 mph - N/A   Clear
8:55 AM 44.6 °F 42.2 °F 37.4 °F 76% 30.01 in 10.0 mi NE 4.6 mph - N/A   Clear
9:15 AM 44.6 °F 42.2 °F 37.4 °F 76% 30.03 in 10.0 mi NE 4.6 mph - N/A   Clear
9:35 AM 46.4 °F 45.2 °F 39.2 °F 76% 30.04 in 10.0 mi NE 3.5 mph - N/A   Clear
9:55 AM 46.4 °F 44.3 °F 39.2 °F 76% 30.05 in 10.0 mi ENE 4.6 mph - N/A   Clear
10:15 AM 50.0 °F - 39.2 °F 66% 30.05 in 10.0 mi East 6.9 mph - N/A   Clear
10:35 AM 51.8 °F - 41.0 °F 67% 30.05 in 10.0 mi ESE 9.2 mph - N/A   Clear
10:55 AM 51.8 °F - 41.0 °F 67% 30.05 in 10.0 mi ESE 9.2 mph - N/A   Clear
11:15 AM 55.4 °F - 41.0 °F 58% 30.05 in 10.0 mi ESE 10.4 mph - N/A   Clear
11:35 AM 55.4 °F - 41.0 °F 58% 30.05 in 10.0 mi East 10.4 mph - N/A   Clear
11:55 AM 57.2 °F - 41.0 °F 55% 30.04 in 10.0 mi SE 8.1 mph - N/A   Clear
12:15 PM 59.0 °F - 41.0 °F 51% 30.05 in 10.0 mi ESE 6.9 mph - N/A   Clear
12:35 PM 60.8 °F - 41.0 °F 48% 30.05 in 10.0 mi ESE 5.8 mph - N/A   Clear
12:55 PM 60.8 °F - 41.0 °F 48% 30.03 in 10.0 mi SE 8.1 mph - N/A   Clear
1:15 PM 62.6 °F - 41.0 °F 45% 30.03 in 10.0 mi ESE 6.9 mph - N/A   Clear
1:35 PM 62.6 °F - 41.0 °F 45% 30.02 in 10.0 mi SE 5.8 mph - N/A   Clear
1:55 PM 62.6 °F - 41.0 °F 45% 30.00 in 10.0 mi East 6.9 mph - N/A   Clear
2:15 PM 62.6 °F - 41.0 °F 45% 30.00 in 10.0 mi East 8.1 mph - N/A   Clear
2:35 PM 62.6 °F - 41.0 °F 45% 29.99 in 10.0 mi ESE 5.8 mph - N/A   Clear
2:55 PM 62.6 °F - 41.0 °F 45% 29.98 in 10.0 mi ESE 4.6 mph - N/A   Clear
3:15 PM 62.6 °F - 41.0 °F 45% 29.98 in 10.0 mi SE 4.6 mph - N/A   Clear
3:35 PM 62.6 °F - 41.0 °F 45% 29.98 in 10.0 mi ESE 3.5 mph - N/A   Clear
3:55 PM 62.6 °F - 42.8 °F 48% 29.98 in 10.0 mi ESE 4.6 mph - N/A   Clear
4:15 PM 62.6 °F - 42.8 °F 48% 29.98 in 10.0 mi ESE 4.6 mph - N/A   Clear
4:35 PM 62.6 °F - 42.8 °F 48% 29.98 in 10.0 mi ESE 4.6 mph - N/A   Clear
4:55 PM 62.6 °F - 42.8 °F 48% 29.98 in 10.0 mi ESE 3.5 mph - N/A   Clear
5:15 PM 62.6 °F - 44.6 °F 52% 29.98 in 10.0 mi SE 3.5 mph - N/A   Clear
5:35 PM 60.8 °F - 44.6 °F 55% 29.98 in 10.0 mi SE 3.5 mph - N/A   Clear
5:55 PM 60.8 °F - 44.6 °F 55% 29.98 in 10.0 mi Calm Calm - N/A   Clear
6:15 PM 59.0 °F - 44.6 °F 59% 29.97 in 10.0 mi East 3.5 mph - N/A   Clear
6:35 PM 59.0 °F - 44.6 °F 59% 29.97 in 10.0 mi East 3.5 mph - N/A   Clear
6:55 PM 59.0 °F - 44.6 °F 59% 29.97 in 10.0 mi East 3.5 mph - N/A   Clear
7:15 PM 57.2 °F - 46.4 °F 67% 29.96 in 7.0 mi ENE 3.5 mph - N/A   Clear
7:35 PM 55.4 °F - 46.4 °F 72% 29.97 in 10.0 mi ENE 3.5 mph - N/A   Clear
7:55 PM 55.4 °F - 46.4 °F 72% 29.96 in 10.0 mi ENE 4.6 mph - N/A   Clear
8:15 PM 55.4 °F - 46.4 °F 72% 29.95 in 10.0 mi East 4.6 mph - N/A   Clear
8:35 PM 55.4 °F - 46.4 °F 72% 29.95 in 10.0 mi East 4.6 mph - N/A   Clear
8:55 PM 55.4 °F - 46.4 °F 72% 29.95 in 10.0 mi East 4.6 mph - N/A   Clear
9:15 PM 55.4 °F - 44.6 °F 67% 29.95 in 10.0 mi East 5.8 mph - N/A   Clear
9:35 PM 55.4 °F - 44.6 °F 67% 29.95 in 10.0 mi East 4.6 mph - N/A   Clear
9:55 PM 53.6 °F - 44.6 °F 72% 29.95 in 10.0 mi ESE 5.8 mph - N/A   Clear
10:15 PM 53.6 °F - 44.6 °F 72% 29.96 in 10.0 mi ESE 6.9 mph - N/A   Clear
10:35 PM 53.6 °F - 44.6 °F 72% 29.96 in 10.0 mi SE 5.8 mph - N/A   Clear
10:55 PM 53.6 °F - 44.6 °F 72% 29.96 in 10.0 mi ESE 6.9 mph - N/A   Clear
11:15 PM 53.6 °F - 44.6 °F 72% 29.96 in 10.0 mi SE 5.8 mph - N/A   Clear
11:35 PM 53.6 °F - 44.6 °F 72% 29.97 in 10.0 mi SE 5.8 mph - N/A   Clear
11:55 PM 53.6 °F - 44.6 °F 72% 29.97 in 10.0 mi ESE 5.8 mph - N/A   Clear